Regional Weather Roundup
Issued by NWS San Diego, CA

Home | Current Version | Previous Version | Text Only | Print | Product List | Glossary On
Versions: 1 2 3 4 5 6 7 8 9 10 11 12 13 14 15 16 17 18 19 20 21 22 23 24 25 26 27 28 29 30 31 32 33 34 35 36 37 38 39 40 41 42 43 44 45 46 47 48 49 50
000
ASUS46 KSGX 312010
RWRSGX

SAN DIEGO HOURLY WEATHER ROUNDUP
NATIONAL WEATHER SERVICE SAN DIEGO CA
100 PM PDT THU JUL 31 2014

NOTE: "FAIR" INDICATES FEW OR NO CLOUDS BELOW 12,000 FEET WITH NO
SIGNIFICANT WEATHER AND/OR OBSTRUCTIONS TO VISIBILITY.

CAZ042-043-060-061-PZZ750-775-312100-

GREATER SAN DIEGO AREA

CITY           SKY/WX    TMP DP  RH WIND       PRES   REMARKS
LINDBERGH FLD  PTSUNNY   78  64  61 NW10      29.92F
POINT LOMA       N/A     77  66  69 W20         N/A
NATIONAL CITY    N/A     80  69  67 SW5       29.91F
CHULA VISTA      N/A     80  70  70 W5        29.85S
IMPERIAL BEACH MOSUNNY   75  66  73 W15G23    29.92F
BROWN FIELD    MOSUNNY   79  65  62 NW10      29.92S
MIRAMAR MCAS   MOSUNNY   83  61  47 W9        29.91F
MONTGOMERY FLD MOSUNNY   85  65  51 W9        29.91F

$$

NORTH SAN DIEGO COUNTY

CITY           SKY/WX    TMP DP  RH WIND       PRES   REMARKS
CAMP PENDLETON MOSUNNY   84  63  49 SW10      29.89F
OCEANSIDE AP   SUNNY     80  65  59 W9        29.89F
VISTA            N/A     82  69  63 W1        29.88S
CARLSBAD       SUNNY     77  65  66 SW8       29.91S
DEL MAR          N/A     77  69  75 W1        29.93F
LA JOLLA SCRIP   N/A     72  68  88 W6        29.89F
FALLBROOK        N/A     90  64  41 S1        29.88F
ESCONDIDO        N/A     92  69  47 W8        29.89F HX  96
SAN MARCOS       N/A     84  68  57 SW3       29.88S
POWAY            N/A     91  68  46 SW1       29.90S
R. PENASQUITOS   N/A     85  67  56 SW3       29.90F

$$

EAST SAN DIEGO COUNTY

CITY           SKY/WX    TMP DP  RH WIND       PRES   REMARKS
RAMONA         MOSUNNY   93  58  30 NW9       29.94F
SANTEE LAKES     N/A     88  68  51 SW3       29.89S
GILLESPIE FLD  FAIR      93  63  36 W8        29.91S
LA MESA          N/A     83  69  61 NW7       29.84S
JAMUL            N/A     90  67  46 NW3       29.87F
DESCANSO N       N/A     93  57  29 NW6       29.74F
MT. LAGUNA OBS   N/A     82  42  23 E1        29.81F
CAMPO            N/A     99  49  18 W12G20    29.94F HX  96

$$

ORANGE COUNTY AND THE LOS ANGELES BASIN

CITY           SKY/WX    TMP DP  RH WIND       PRES   REMARKS
JOHN WAYNE AP  MOSUNNY   85  61  44 SW7       29.91F
LAGUNA BEACH     N/A     77  69  75 S3        29.87F
LAKE FOREST FR   N/A     89  61  38 W3        29.79F
SANTA ANA        N/A     86  68  55 W3        29.86F
HUNTINGTON BCH   N/A     76  68  77 W2        29.94F
LOS ALAMITOS   MOSUNNY   80  65  61 SW9       29.91F
FULLERTON      SUNNY     84  61  45 VRB3      29.89F
LONG BEACH     SUNNY     78  63  59 S7        29.91F
L.A. AP        MOSUNNY   74  63  68 W12       29.92F
L.A. DOWNTOWN  SUNNY     85  64  49 VRB5      29.90F

$$

THE INLAND EMPIRE

CITY           SKY/WX    TMP DP  RH WIND       PRES   REMARKS
CORONA         SUNNY     91  62  37 W8        29.90F
CHINO          MOSUNNY   94  60  32 NW8       29.91F
ONTARIO        MOSUNNY   94  57  28 SW7       29.91F
SAN BERNARDINO MOSUNNY   93  50  22 SW7       29.93F
RIVERSIDE AP   SUNNY     94  60  32 VRB7      29.90F
RIV CYN CREST    N/A     92  65  41 W6        29.89F
MORENO VALLEY    N/A     98  60  28 W6          N/A  HX  98
MARCH ARB      SUNNY     95  57  27 NW12      29.94F
HORSETHIEF CYN   N/A     93  54  26 NW6       29.89F
PERRIS           N/A     96  58  28 NW5       29.89F HX  95
MENIFEE          N/A    101  56  22 SW2       29.95F HX 100
HEMET EAST       N/A     98  50  19 CALM      29.87S HX  95
FRENCH VALLEY  FAIR      97  57  26 S7        29.92F HX  95
TEMECULA         N/A     97  59  28 W5        29.87F HX  97

$$

SAN BERNARDINO AND RIVERSIDE COUNTY MOUNTAINS

CITY           SKY/WX    TMP DP  RH WIND       PRES   REMARKS
BIG BEAR AP    CLOUDY    77  41  27 NE8       30.33F
BIG BEAR SHEA    N/A     80  40  23 NE3       29.91F
ANGELUS OAKS     N/A     89  50  26 CALM      29.77F
PINE COVE        N/A     82  48  30 W3        29.87F

$$

SOUTHERN DESERT INCLUDING THE COACHELLA VALLEY

CITY           SKY/WX    TMP DP  RH WIND       PRES   REMARKS
PALM SPRINGS   MOSUNNY  108  55  17 E15       29.82F HX 107
THOUSAND PALMS   N/A    103  57  21 E9        29.78F HX 103
THERMAL        PTSUNNY  105  63  25 SE12G20   29.77F HX 108
BLYTHE           N/A    N/A N/A N/A MISG      29.82F
IMPERIAL AP      N/A    N/A N/A N/A MISG      29.78F
EL CENTRO NAS  PTSUNNY  106  65  26 SE10      29.78F HX 110
YUMA AZ        PTSUNNY  105  62  24 S14G20    29.82F HX 107
MEXICALI       PTSUNNY  104  63  25 E12       29.81  HX 106

$$

UPPER DESERT

CITY           SKY/WX    TMP DP  RH WIND       PRES   REMARKS
VICTORVILLE AP MOSUNNY   97  43  15 S6        30.01F
HESPERIA         N/A     98  52  20 N2        29.93F HX  95
APPLE VALLEY     N/A     99  42  14 CALM      30.05F
GRAY BUTTE AP  NOT AVBL
PALMDALE       SUNNY     97  45  16 CALM      29.99F
LANCASTER      SUNNY    100  44  14 NE10      29.98F HX  96
EDWARDS AFB    MOSUNNY   99  46  16 E6        29.96F HX  95
DAGGETT        SUNNY    103  44  13 NW12      29.93F HX  98
29 PALMS N     MOSUNNY  102  46  15 VRB3      30.00F HX  98
NEEDLES        CLOUDY   110  46  11 SW8       29.82F HX 105

$$

REGIONAL REPORTS

CITY           SKY/WX    TMP DP  RH WIND       PRES   REMARKS
SANTA BARBARA  SUNNY     76  62  62 CALM      29.93F
SANDBERG       SUNNY     92  42  17 N15G22    30.16F
MT. WILSON       N/A     86  48  26 SW8         N/A
LAS VEGAS NV   MOSUNNY  102  46  15 VRB3      29.89F HX  98
PHOENIX AZ     PTSUNNY  106  56  19 SE12G21   29.88F HX 105
TIJUANA        MOSUNNY   81  63  54 W14       29.93F
ENSENADA NW      N/A     73  32  22 W16       29.88S

$$

OFFSHORE ISLANDS

CITY           SKY/WX    TMP DP  RH WIND       PRES   REMARKS
CATALINA ARPT  SUNNY     76  60  57 W10       29.98F
SAN CLEMENTE I PTSUNNY   73  63  70 W15       29.96F
SAN NICOLAS IS MOSUNNY   72  62  71 W23       29.95S

$$

MARINE AND OFFSHORE BUOY REPORTS

STATION/POSITION SKY/WX   TEMP    WIND        PRES    SWELL
                          AIR SEA DIR/SP/G            HT/PER/DIR
                          (F)     (DEG/KT/KT) (MB)    (FT/S/D)
TANNER BANKS               65 67  310/ 17/ 21 1014.6S   3/200/12
S CLEMENTE BASIN           68 71  300/ 14/ 16 1013.3F   3/290/ 7
SAN NICOLAS IS.               67                N/A     3/150/13
SO. S. ROSA ISLA           64 66  310/ 17/ 19 1014.2F   3/12
W. S. BARBARA CH           61 61  300/ 17/ 21 1013.8S   2/320/ 8
M. S. BARBARA CH           64     270/ 10     1014.0
S. MONICA BASIN            67 71  310/  4/  6 1013.1F   3/180/13
S PEDRO CHANNEL               70                N/A     2/170/11
DANA POINT                    72                N/A     2/180/13
CMP PENDLETON NS              72                N/A     2/200/13
OCEANSIDE OFFSHR              74                N/A     2/180/12
TORREY PINES OTR              74                N/A     2/190/12
LA JOLLA 1                 73 70  300/  4/  6 1013.2F
MISSION BAY BUOY              72                N/A     2/190/13
SAN DIEGO BAY                 75              1013.4S
POINT LOMA SOUTH              73                N/A     2/180/13

$$



USA.gov is the U.S. government's official web portal to all federal, state and local government web resources and services.